Home > Weather > Lübeck > Past weeks

Flag for Germany Weather for the Past 2 Weeks in Lübeck, Schleswig-Holstein, Germany

Now
36 °F

Light rain. Partly sunny.


Feels Like: 30 °F
Forecast: 33 / 39 °F
Wind: 7 mph from Southwest

Location: Luebeck-Blankensee

Current Time: Feb 12, 2016 at 9:22:41 AM

Latest Report: Feb 12, 2016 at 8:50 AM


Visibility: 4 mi

Pressure: 29.56 "Hg

Humidity: 100%

Dew point: 36 °F

Location of LübeckLocation

Historic Weather in Lübeck — Graph

°F

Lübeck Temperature Yesterday

Maximum temperature yesterday: 41 °F (at 1:50 PM)
Minimum temperature yesterday: 37 °F (at 7:20 AM)
Average temperature yesterday: 39 °F

High & Low Weather Summary for the Past Weeks

 TemperatureHumidityPressure
High54 °F (Feb 7, 2:20 PM)100% (Jan 30, 12:50 PM)30.18 "Hg (Jan 30, 12:50 PM)
Low34 °F (Feb 5, 6:50 AM)54% (Feb 2, 3:20 PM)28.88 "Hg (Feb 9, 7:50 PM)
Average43 °F82%29.66 "Hg
* Reported Jan 28 7:20 AM — Feb 12 7:50 AM, Lübeck, Weather by CustomWeather, © 2016

Note: Actual official high and low records may vary slightly from our data, if they occured in-between our weather recording intervals... More about our weather records

Advertising

Lübeck Weather History for the Previous 24 Hours

 ConditionsComfort  
Time TempWeatherWind HumidityBarometerVisibility
7:50 AM
Fri, Feb 12
36 °FPartly sunny.7 mph100%29.56 "Hg4 mi
7:20 AM37 °FPassing clouds.6 mph93%29.56 "Hg5 mi
6:50 AM36 °FMostly cloudy.1 mph100%29.56 "Hg4 mi
7:50 PM
Thu, Feb 11
39 °FPassing clouds.10 mph93%29.56 "HgN/A
7:20 PM39 °FPassing clouds.9 mph93%29.53 "HgN/A
6:50 PM39 °FLight rain. Partly cloudy.5 mph93%29.53 "HgN/A
6:20 PM39 °FPassing clouds.5 mph93%29.53 "HgN/A
5:50 PM39 °FLight rain. Partly cloudy.7 mph93%29.53 "HgN/A
5:20 PM39 °FLight rain. Partly cloudy.10 mph93%29.53 "HgN/A
4:50 PM39 °FBroken clouds.13 mph93%29.53 "HgN/A
4:20 PM41 °FLight rain. Broken clouds.12 mph87%29.53 "HgN/A
3:50 PM41 °FLight rain. Partly sunny.9 mph87%29.50 "HgN/A
3:20 PM41 °FLight rain. Partly sunny.14 mph87%29.50 "HgN/A
2:50 PM41 °FLight rain. Partly sunny.13 mph87%29.50 "HgN/A
2:20 PM41 °FLight rain. Partly sunny.14 mph93%29.50 "HgN/A
1:50 PM41 °FLight rain. Partly sunny.10 mph87%29.50 "HgN/A
1:20 PM39 °FPartly sunny.10 mph93%29.50 "HgN/A
12:50 PM39 °FDrizzle. Partly sunny.10 mph93%29.50 "HgN/A
12:20 PM39 °FDrizzle. Partly sunny.15 mph93%29.50 "HgN/A
11:50 AM39 °FDrizzle. Partly sunny.14 mph87%29.47 "HgN/A
11:20 AM39 °FPartly sunny.13 mph87%29.47 "HgN/A
10:50 AM39 °FPartly sunny.14 mph87%29.47 "HgN/A
10:20 AM37 °FPartly sunny.14 mph93%29.47 "Hg6 mi
9:50 AM37 °FPartly sunny.14 mph93%29.47 "Hg6 mi
9:20 AM37 °FDrizzle. Partly sunny.15 mph93%29.45 "Hg5 mi
Weather by CustomWeather, © 2016

See weather overviewHow to use our weather pages